Location: Newark
(22.3000°N, 114.2000°E)
Time: 04:35:14
(UTC+00:00)

Hubble Space Telescope - Pass Details

Date: 26 October 2019
Orbit: 536 x 540 km, 28.5° (Epoch: 17 November)

Event Time Altitude Azimuth Distance (km) Brightness Sun altitude
Exits shadow 21:04:18 24° 212° (SSW) 1,119 2.1 -19.1°
Maximum altitude 21:06:17 43° 156° (SSE) 756 1.7 -18.6°
Drops below altitude 10° 21:10:12 10° 84° (E) 1,777 4.6 -17.7°
Sets 21:12:32 0° 77° (ENE) 2,667 5.7 -17.2°
